Waarnemingen

Advertentie
Mijn weer
Auch, Frankrijk (7622): temperatuur & dauwpunt: 22.05.2017 06:00:00 - 28.05.2017 06:00:00 (CEST)Auch, Frankrijk (7622): temperatuur 5cm: 22.05.2017 06:00:00 - 28.05.2017 06:00:00 (CEST)Auch, Frankrijk (7622): temperatuur -20cm & temperatuur -100cm: 22.05.2017 06:00:00 - 28.05.2017 06:00:00 (CEST)Auch, Frankrijk (7622): windsnelheid & windstoten: 22.05.2017 06:00:00 - 28.05.2017 06:00:00 (CEST)Auch, Frankrijk (7622): windrichting: 22.05.2017 06:00:00 - 28.05.2017 06:00:00 (CEST)Auch, Frankrijk (7622): luchtdruk: 22.05.2017 06:00:00 - 28.05.2017 06:00:00 (CEST)Auch, Frankrijk (7622): zicht: 22.05.2017 06:00:00 - 28.05.2017 06:00:00 (CEST)Auch, Frankrijk (7622): Zonneschijnduur: 22.05.2017 06:00:00 - 28.05.2017 06:00:00 (CEST)Auch, Frankrijk (7622): neerslag: 22.05.2017 06:00:00 - 28.05.2017 06:00:00 (CEST)
Datum & Tijd tt [°C] td [°C] tt 5cm [°C] tt -20cm [°C] tt -100cm [°C] ff [km/u] ff [kn] fx [km/u] fx [kn] dd ppp [hPa] vv [km] sd [min] rr [mm]
28.05.2017 06:00:00 18,1 12,8 15,7 21,9 17,1 4 2 13 7 Z 1014,3 20 0 0,0
28.05.2017 05:00:00 18,1 12,3 15,4 22,1 17,0 2 1 12 6 ZZW 1014,3 20 0 0,0
28.05.2017 04:00:00 18,0 12,7 15,4 22,2 17,0 0 0 10 5 N 1014,8 20 0 0,0
28.05.2017 03:00:00 18,3 12,9 15,6 22,4 17,0 2 1 13 7 WZW 1015,0 20 0 0,0
28.05.2017 02:00:00 19,3 12,8 17,4 22,6 17,0 3 1 15 8 OZO 1015,4 20 0 0,0
28.05.2017 01:00:00 19,9 12,4 18,0 22,7 17,0 2 1 14 8 NNW 1015,6 20 0 0,0
28.05.2017 00:00:00 21,0 12,4 18,7 22,8 17,0 5 3 16 8 ZO 1015,9 20 0 0,0
27.05.2017 23:00:00 21,8 13,2 19,2 22,9 17,0 4 2 17 9 WNW 1015,9 20 0 0,0
27.05.2017 22:00:00 23,2 13,4 21,8 23,0 17,0 5 3 16 9 O 1015,4 20 0 0,0
27.05.2017 21:00:00 24,7 14,5 24,0 22,9 16,9 9 5 24 13 OZO 1015,2 20 0 0,0
27.05.2017 20:00:00 26,2 15,3 26,0 22,8 16,9 13 7 27 15 OZO 1014,8 20 44 0,0
27.05.2017 19:00:00 27,7 15,4 29,7 22,6 16,9 17 9 31 17 ZO 1014,4 20 60 0,0
27.05.2017 18:00:00 29,1 16,6 32,0 22,3 16,9 13 7 32 17 O 1014,2 20 60 0,0
27.05.2017 17:00:00 28,9 16,8 33,0 22,0 16,9 16 9 33 18 OZO 1014,3 20 60 0,0
27.05.2017 16:00:00 28,2 16,5 32,4 21,7 16,9 18 10 35 19 OZO 1014,7 20 60 0,0
27.05.2017 15:00:00 27,5 16,8 32,3 21,5 16,9 16 8 29 16 O 1015,1 20 60 0,0
27.05.2017 14:00:00 26,2 16,7 29,8 21,2 16,9 13 7 28 15 O 1015,5 20 60 0,0
27.05.2017 13:00:00 25,0 16,4 30,3 21,0 16,9 14 8 30 16 O 1015,9 20 60 0,0
27.05.2017 12:00:00 24,9 17,4 29,6 20,9 16,8 14 7 23 12 ZO 1015,8 19 60 0,0
27.05.2017 11:00:00 23,6 16,4 26,1 21,0 16,8 8 4 20 11 O 1015,9 20 60 0,0
27.05.2017 10:00:00 21,9 16,2 22,4 21,0 16,8 12 6 21 11 OZO 1016,0 20 60 0,0
27.05.2017 09:00:00 20,6 15,8 20,1 21,2 16,8 5 3 16 9 O 1015,9 17 60 0,0
27.05.2017 08:00:00 18,6 15,3 16,8 21,3 16,8 7 4 19 10 O 1015,3 17 60 0,0
27.05.2017 07:00:00 16,9 14,4 14,9 21,5 16,8 8 5 17 9 ZO 1015,0 19 11 0,0
27.05.2017 06:00:00 16,1 13,9 14,5 21,7 16,8 3 1 11 6 OZO 1015,1 16 0 0,0
27.05.2017 05:00:00 16,7 14,2 14,7 21,8 16,8 6 4 13 7 ZZO 1015,3 4,4 0 0,0
27.05.2017 04:00:00 17,2 14,5 15,6 22,0 16,8 9 5 17 9 ZZO 1015,7 18 0 0,0
27.05.2017 03:00:00 17,7 15,0 15,8 22,2 16,8 10 5 17 9 ZZO 1016,4 18 0 0,0
27.05.2017 02:00:00 17,4 15,0 16,0 22,3 16,7 9 5 11 6 Z 1017,3 15 0 0,0
27.05.2017 01:00:00 19,0 15,5 18,4 22,5 16,7 5 3 32 17 W 1017,3 16 0 0,0
27.05.2017 00:00:00 19,9 16,1 18,5 22,6 16,7 16 9 41 22 W 1016,9 18 0 0,0
26.05.2017 23:00:00 20,9 14,5 19,4 22,7 16,7 9 5 18 10 ZO 1013,8 20 0 0,0
26.05.2017 22:00:00 21,5 14,6 19,9 22,7 16,7 5 3 17 9 Z 1012,7 20 1 0,0
26.05.2017 21:00:00 23,5 15,3 22,9 22,6 16,7 6 4 21 12 OZO 1012,4 20 52 0,0
26.05.2017 20:00:00 25,1 16,0 25,6 22,5 16,7 12 7 32 18 OZO 1012,1 1,3 60 0,0
26.05.2017 19:00:00 27,0 16,3 28,2 22,3 16,7 15 8 35 19 ZO 1011,3 20 41 0,0
26.05.2017 18:00:00 29,4 15,1 33,7 22,0 16,6 19 10 37 20 ZO 1011,7 13 60 0,0
26.05.2017 17:00:00 30,5 15,0 34,7 21,6 16,6 19 10 35 19 OZO 1011,6 20 60 0,0
26.05.2017 16:00:00 30,4 16,8 32,0 21,3 16,6 14 8 29 16 O 1011,2 20 48 0,0
26.05.2017 15:00:00 30,1 15,4 34,8 21,0 16,6 13 7 27 15 O 1011,5 20 60 0,0
26.05.2017 14:00:00 29,7 16,8 34,0 20,7 16,6 10 5 23 13 O 1011,9 20 60 0,0
26.05.2017 13:00:00 28,2 15,8 32,9 20,6 16,6 14 7 25 13 O 1012,1 19 60 0,0
26.05.2017 12:00:00 27,1 15,8 30,7 20,4 16,6 12 6 23 12 OZO 1012,4 20 60 0,0
26.05.2017 11:00:00 25,4 15,7 28,0 20,5 16,6 11 6 19 10 OZO 1012,5 19 60 0,0
26.05.2017 10:00:00 23,6 14,9 23,8 20,5 16,6 9 5 16 9 O 1012,8 20 60 0,0
26.05.2017 09:00:00 21,9 15,0 21,5 20,7 16,6 7 4 10 6 OZO 1012,7 20 60 0,0
26.05.2017 08:00:00 17,7 14,2 12,3 20,9 16,6 0 0 5 3 N 1013,3 20 53 0,0
26.05.2017 07:00:00 14,1 12,5 11,2 21,1 16,6 0 0 4 2 N 1013,4 20 0 0,0
26.05.2017 06:00:00 13,8 11,8 11,3 21,2 16,5 4 2 6 3 ZZW 1013,7 20 0 0,0
26.05.2017 05:00:00 15,6 12,7 12,4 21,4 16,5 0 0 9 5 N 1013,6 20 0 0,0
26.05.2017 04:00:00 18,5 12,7 16,0 21,6 16,5 5 3 23 13 OZO 1013,8 20 0 0,0
26.05.2017 03:00:00 16,8 13,3 13,8 21,8 16,5 2 1 10 5 Z 1012,9 20 0 0,0
26.05.2017 02:00:00 18,7 12,4 14,5 22,0 16,5 4 2 13 7 ZO 1012,8 20 0 0,0
26.05.2017 01:00:00 20,6 13,3 13,6 22,2 16,5 7 4 14 8 Z 1012,8 20 0 0,0
26.05.2017 00:00:00 17,3 14,9 13,5 22,3 16,5 0 0 4 2 N 1013,0 20 0 0,0
25.05.2017 23:00:00 18,4 15,1 14,6 22,3 16,5 3 2 4 2 Z 1012,6 20 0 0,0
25.05.2017 22:00:00 21,2 15,1 15,7 22,3 16,5 2 1 3 2 ZZW 1012,2 19 0 0,0
25.05.2017 21:00:00 28,0 15,6 25,6 22,2 16,5 3 1 11 6 ONO 1011,8 20 32 0,0
25.05.2017 20:00:00 30,0 13,3 32,8 22,0 16,5 6 3 17 9 ONO 1011,6 20 60 0,0
25.05.2017 19:00:00 31,0 10,9 35,1 21,7 16,5 8 5 23 12 ONO 1011,6 20 60 0,0
25.05.2017 18:00:00 31,1 13,8 35,7 21,3 16,5 11 6 21 11 NO 1011,8 20 60 0,0
25.05.2017 17:00:00 31,2 14,8 36,5 20,9 16,4 13 7 23 13 NNO 1012,1 20 60 0,0
25.05.2017 16:00:00 31,3 14,4 36,7 20,5 16,4 10 6 22 12 N 1012,6 20 60 0,0
25.05.2017 15:00:00 31,1 13,8 36,8 20,0 16,4 4 2 14 8 Z 1013,2 20 60 0,0
25.05.2017 14:00:00 30,6 13,8 35,9 19,7 16,4 5 3 16 9 OZO 1013,9 20 60 0,0
25.05.2017 13:00:00 29,2 14,6 35,3 19,4 16,4 6 3 16 9 O 1014,4 20 60 0,0
25.05.2017 12:00:00 27,8 17,9 33,6 19,3 16,4 4 2 11 6 NNW 1014,9 20 60 0,0
25.05.2017 11:00:00 26,3 16,8 28,3 19,3 16,4 2 1 8 5 O 1015,4 20 60 0,0
25.05.2017 10:00:00 22,2 16,5 22,2 19,3 16,4 2 1 5 3 N 1015,9 20 60 0,0
25.05.2017 09:00:00 19,0 14,9 18,3 19,5 16,4 0 0 5 3 N 1016,2 20 60 0,0
25.05.2017 08:00:00 14,8 13,2 10,2 19,7 16,4 0 0 6 3 N 1016,5 20 53 0,0
25.05.2017 07:00:00 11,5 11,0 8,5 19,9 16,4 3 1 7 4 NNO 1016,5 20 0 0,0
25.05.2017 06:00:00 11,6 11,0 8,3 20,1 16,4 0 0 4 2 N 1016,4 20 0 0,2
25.05.2017 05:00:00 12,1 11,2 8,9 20,3 16,4 2 1 3 2 ZZW 1016,4 20 0 0,0
25.05.2017 04:00:00 13,0 11,9 9,4 20,5 16,4 0 0 5 3 N 1016,6 20 0 0,0
25.05.2017 03:00:00 13,9 12,8 10,9 20,6 16,4 6 3 10 5 ZZW 1017,1 20 0 0,0
25.05.2017 02:00:00 13,5 12,2 10,1 20,8 16,4 4 2 6 3 ZZW 1017,7 20 0 0,0
25.05.2017 01:00:00 13,7 12,3 11,1 20,9 16,4 4 2 5 3 ZZW 1018,2 20 0 0,0
25.05.2017 00:00:00 15,4 13,6 11,9 21,0 16,4 2 1 5 3 ZW 1018,3 20 0 0,0
24.05.2017 23:00:00 17,2 14,3 13,3 21,1 16,4 0 0 4 2 N 1018,6 20 0 0,0
24.05.2017 22:00:00 19,7 14,7 15,4 21,1 16,3 2 1 4 2 ZW 1018,4 20 0 0,0
24.05.2017 21:00:00 25,3 14,1 24,8 21,0 16,3 3 1 14 7 OZO 1017,9 20 33 0,0
24.05.2017 20:00:00 26,6 13,3 29,2 20,8 16,3 9 5 19 10 NNO 1017,8 20 60 0,0
24.05.2017 19:00:00 27,1 13,1 31,4 20,5 16,3 11 6 22 12 N 1018,0 20 60 0,0
24.05.2017 18:00:00 27,5 14,2 33,2 20,1 16,3 14 7 21 12 N 1018,4 20 60 0,0
24.05.2017 17:00:00 27,7 14,3 33,4 19,7 16,3 9 5 19 10 N 1019,0 19 60 0,0
24.05.2017 16:00:00 26,8 15,8 32,5 19,3 16,3 8 4 16 9 O 1019,6 20 60 0,0
24.05.2017 15:00:00 25,0 15,9 30,9 19,0 16,3 10 5 21 12 NNO 1020,5 20 60 0,0
24.05.2017 14:00:00 23,3 16,3 29,5 18,7 16,3 10 5 23 12 NNO 1021,1 19 60 0,0
24.05.2017 13:00:00 22,0 16,3 27,5 18,5 16,3 8 4 19 10 ONO 1021,8 19 60 0,0
24.05.2017 12:00:00 20,2 15,4 24,1 18,4 16,3 9 5 16 9 NO 1022,4 20 56 0,0
24.05.2017 11:00:00 19,1 14,6 20,8 18,4 16,3 7 4 16 8 O 1022,6 19 42 0,0
24.05.2017 10:00:00 16,4 15,3 16,2 18,4 16,3 3 2 6 4 N 1022,9 12 36 0,0
24.05.2017 09:00:00 13,2 13,0 13,0 18,6 16,3 3 2 6 3 ZZW 1023,2 0,8 4 0,0
24.05.2017 08:00:00 11,9 11,7 11,7 18,7 16,3 0 0 4 2 N 1023,5 0,5 0 0,0
24.05.2017 07:00:00 11,1 10,8 9,2 18,9 16,3 2 1 4 2 N 1023,3 0,3 0 0,0
24.05.2017 06:00:00 10,0 9,5 6,8 19,1 16,3 0 0 2 1 N 1023,2 1,8 0 0,0
24.05.2017 05:00:00 10,2 9,6 7,0 19,3 16,3 0 0 2 1 N 1023,3 10 0 0,0
24.05.2017 04:00:00 10,7 10,1 7,1 19,5 16,3 0 0 2 1 N 1023,4 11 0 0,0
24.05.2017 03:00:00 11,1 10,5 7,9 19,7 16,2 0 0 3 1 N 1023,7 14 0 0,0
24.05.2017 02:00:00 11,4 10,8 8,5 19,8 16,3 2 1 4 2 ZZW 1024,3 12 0 0,0
24.05.2017 01:00:00 12,1 11,2 8,6 20,0 16,2 3 1 4 2 ZW 1024,6 13 0 0,0
24.05.2017 00:00:00 13,1 11,8 9,9 20,1 16,2 0 0 3 2 N 1024,6 17 0 0,0
23.05.2017 23:00:00 14,8 13,0 11,4 20,1 16,2 0 0 6 3 N 1024,6 20 0 0,0
23.05.2017 22:00:00 17,1 13,8 15,0 20,1 16,2 4 2 13 7 NO 1023,9 20 0 0,0
23.05.2017 21:00:00 19,0 14,0 18,8 20,0 16,2 10 6 14 8 N 1023,4 20 34 0,0
23.05.2017 20:00:00 20,6 14,0 24,0 19,8 16,2 7 4 13 7 N 1022,9 20 60 0,0
23.05.2017 19:00:00 21,0 13,9 25,0 19,6 16,2 8 5 21 12 N 1022,9 20 56 0,0
23.05.2017 18:00:00 22,0 13,9 27,3 19,3 16,2 6 3 15 8 NNO 1023,1 19 60 0,0
23.05.2017 17:00:00 21,5 12,6 27,8 19,1 16,2 4 2 13 7 ZW 1023,6 20 60 0,0
23.05.2017 16:00:00 21,1 13,8 24,0 18,9 16,2 3 1 13 7 ZZO 1023,8 20 50 0,0
23.05.2017 15:00:00 19,2 12,0 22,9 18,8 16,2 6 3 15 8 NO 1024,4 19 37 0,0
23.05.2017 14:00:00 17,8 12,0 19,4 18,8 16,2 4 2 14 8 WZW 1025,0 19 0 0,0
23.05.2017 13:00:00 16,2 11,6 17,3 18,9 16,2 6 3 13 7 WZW 1025,4 20 0 0,0
23.05.2017 12:00:00 15,6 11,4 16,2 19,0 16,2 5 3 13 7 W 1025,7 20 0 0,0
23.05.2017 11:00:00 15,1 11,3 15,7 19,1 16,2 8 4 16 8 W 1025,4 20 0 0,0
23.05.2017 10:00:00 14,8 11,0 14,8 19,2 16,2 8 4 17 9 W 1025,2 20 0 0,0
23.05.2017 09:00:00 14,4 11,0 14,4 19,3 16,2 8 4 18 10 WNW 1024,9 20 0 0,0
23.05.2017 08:00:00 14,3 11,3 14,1 19,4 16,1 4 2 9 5 W 1024,4 19 0 0,0
23.05.2017 07:00:00 14,1 11,1 13,9 19,6 16,1 5 3 19 10 W 1024,0 19 0 0,0
23.05.2017 06:00:00 14,1 11,4 13,9 19,7 16,1 11 6 19 11 WZW 1023,5 20 0 0,0
23.05.2017 05:00:00 14,3 11,6 14,2 19,9 16,1 10 5 25 14 W 1023,0 20 0 0,0
23.05.2017 04:00:00 14,5 12,0 14,5 20,0 16,1 12 7 25 13 WNW 1022,6 18 0 0,0
23.05.2017 03:00:00 14,7 12,2 14,6 20,2 16,1 11 6 28 15 W 1022,3 18 0 0,0
23.05.2017 02:00:00 15,2 12,7 15,1 20,3 16,1 10 5 23 12 W 1022,1 17 0 0,0
23.05.2017 01:00:00 15,5 12,8 15,4 20,4 16,1 10 5 20 11 W 1022,5 14 0 0,0
23.05.2017 00:00:00 15,9 12,8 15,7 20,5 16,1 11 6 26 14 WNW 1022,0 18 0 0,0
22.05.2017 23:00:00 16,5 13,4 15,7 20,5 16,1 10 5 18 10 ZW 1021,7 16 0 0,0
22.05.2017 22:00:00 17,7 13,6 16,9 20,5 16,1 11 6 29 16 WZW 1020,4 20 0 0,0
22.05.2017 21:00:00 20,7 14,6 20,7 20,4 16,1 11 6 31 17 W 1018,9 20 60 0,0
22.05.2017 20:00:00 22,6 14,4 22,6 20,2 16,1 16 9 31 17 NNW 1018,1 20 7 0,0
22.05.2017 19:00:00 26,0 16,8 28,9 20,0 16,1 18 10 37 20 WNW 1016,5 20 60 0,0
22.05.2017 18:00:00 27,4 16,1 27,2 19,7 16,1 14 7 23 13 W 1015,7 20 34 0,0
22.05.2017 17:00:00 27,7 15,4 27,7 19,4 16,1 12 7 27 15 NW 1016,0 20 45 0,0
22.05.2017 16:00:00 27,2 14,6 29,2 18,9 16,1 14 8 35 19 NW 1016,3 20 60 0,0
22.05.2017 15:00:00 27,1 15,8 32,8 18,6 16,1 5 3 18 10 N 1016,2 20 60 0,0
22.05.2017 14:00:00 26,2 16,4 32,4 18,3 16,1 4 2 14 8 NNO 1016,1 20 60 0,0
22.05.2017 13:00:00 25,2 15,5 30,3 18,1 16,1 5 3 11 6 ZZO 1016,0 20 60 0,0
22.05.2017 12:00:00 23,7 16,0 27,0 18,0 16,1 3 1 19 10 ZO 1016,0 20 60 0,0
22.05.2017 11:00:00 21,3 14,7 24,2 18,0 16,1 11 6 22 12 ZO 1015,9 20 60 0,0
22.05.2017 10:00:00 19,3 14,1 19,9 18,1 16,1 12 6 21 11 ZZO 1016,2 20 44 0,0
22.05.2017 09:00:00 17,7 13,8 17,4 18,1 16,1 10 5 22 12 ZZO 1015,9 20 11 0,0
22.05.2017 08:00:00 16,3 12,1 14,5 18,2 16,1 3 2 24 13 ZZO 1015,6 20 3 0,0
22.05.2017 07:00:00 15,8 10,8 14,7 18,3 16,1 4 2 14 7 ZO 1014,5 20 0 0,0
22.05.2017 06:00:00 16,2 8,2 15,1 18,4 16,1 5 3 16 9 ZZO 1013,6 20 0 0,0

tt = temperatuur
td = dauwpunt
tt 5cm = temperatuur 5cm
tt -20cm = temperatuur -20cm
tt -100cm = temperatuur -100cm
ff = windsnelheid
fx = windstoten
dd = windrichting
ppp = luchtdruk
vv = zicht
sd = Zonneschijnduur
rr = neerslag

Weerstations in de omgeving